LEMUR 2 LANGER2SPACE

导读

LEMUR 2 LANGER2SPACE隶属于美国Spire Global公司Lemur-2低轨多用途卫星星座,作为3U立方星(纳卫星),发射质量约4.6千克,定轨于550千米高度的太阳同步轨道。它承担无线电掩星探测、船舶航行追踪任务,可提供气象观测数据,也可为空间天气研究贡献支持,相关数据可通过商业渠道获取。该星于2025年3月26日发射,目前发射归属暂未明确标注。

基本信息
目录编号:
63358
目录名称:
LEMUR 2 LANGER2SPACE
国际标识:
2025-061H
轨道中心:
EARTH
卫星名称:
LEMUR 2 LANGER2SPACE
卫星全名:
LEMUR 2 LANGER2SPACE
卫星状态:
在轨 (已飞行448 天)
发射日期:
2025-03-26 UTC
国别 :
美国 (US)
星等 :
--
轨道信息
数据来源 国际轨道数据
星历时间: 2026-06-17T13:08:11+0800
6小时前
查看轨道信息
半长轴: 6901.274km
偏心率: 0.0014955
轨道倾角: 97.561°
近地点辐角 256.256°
升交点赤经 143.925°
平近点角 103.701°
近地点: 512.816km
远地点: 533.458km
周期: 95.094分钟
每日圈数: 15.142896
详细信息
使用方式:
暂无
2D轨道图
3D轨道图
轨道高度分析图
轨道倾角分析图
轨道综合分析图
查看轨道综合分析图